Location: Newark
(13.6797°N, 8.5297°E)
Time: 15:21:26
(UTC+00:00)

Courier 1B Rocket - Pass Details

Date: 27 January 2020
Orbit: 920 x 1202 km, 28.2° (Epoch: 25 February)

Event Time Altitude Azimuth Distance (km) Brightness Sun altitude
Rises 12:34:04 0° 298° (WNW) 3,900 8.1 55.0°
Reaches altitude 10° 12:37:32 10° 312° (NW) 2,890 7.5 54.7°
Maximum altitude 12:42:58 23° 3° (N) 1,998 6.6 54.1°
Drops below altitude 10° 12:48:09 10° 54° (NE) 2,730 7.1 53.5°
Sets 12:51:19 0° 69° (ENE) 3,636 7.7 53.2°
